Location: Rounton
(54.4000°N, 1.3500°W)
Time: 22:09:33
(UTC+00:00)

Vanguard 3 - Pass Details

Date: 09 December 2021
Orbit: 508 x 3260 km, 33.3° (Epoch: 17 January)

Event Time Altitude Azimuth Distance (km) Brightness Sun altitude
Rises 00:15:02 0° 188° (S) 6,299 - -58.2°
Reaches altitude 10° 00:21:14 10° 171° (S) 5,703 - -58.1°
Maximum altitude 00:31:08 18° 137° (SE) 5,473 - -57.8°
Exits shadow 00:36:54 15° 118° (ESE) 5,757 11.3 -57.6°
Drops below altitude 10° 00:41:41 10° 105° (ESE) 6,182 11.6 -57.4°
Sets 00:48:48 0° 89° (E) 7,043 12.1 -57.0°
